Kimball, NE

8:01 PM MDT on August 23, 2017 (GMT -0600)
Kimball Municipal-Arraj

Weather History for KIBM - June, 2013

Change the Weather History Date:

Thursday, June 6, 2013

  Actual Average (KSNY) Record (KSNY)
Temperature  
Mean Temperature 60 °F -  
Max Temperature 75 °F 80 °F 98 °F (2004)
Min Temperature 44 °F 48 °F 32 °F (1998)
Degree Days  
Heating Degree Days 6    
Growing Degree Days 10 (Base 50)    
Moisture  
Dew Point 41 °F    
Average Humidity 58    
Maximum Humidity 91    
Minimum Humidity 22    
Precipitation  
Precipitation 0.00 in - - ()
Sea Level Pressure  
Sea Level Pressure 30.10 in    
Wind  
Wind Speed 8 mph (East)    
Max Wind Speed 17 mph    
Max Gust Speed 28 mph    
Visibility 10 miles    
Events      
Averages and records for this station are not official NWS values.
T = Trace of Precipitation, MM = Missing Value Source: NWS Daily Summary

Daily Weather History Graph

Daily Weather History Graph

Search for Another Location

Airport or City:

Trip Planner

Search our weather history database for the weather conditions in past years. The results will help you decide how hot, cold, wet, or windy it might be!

Date:

Astronomy

Jun. 06, 2013 Rise Set
Actual Time 6:22 AM CDT 9:24 PM CDT
Civil Twilight 5:49 AM CDT 9:58 PM CDT
Nautical Twilight 5:06 AM CDT 10:40 PM CDT
Astronomical Twilight 4:16 AM CDT 11:30 PM CDT
Moon 5:06 AM CDT (6/6) 7:47 PM CDT (6/6)
Length of Visible Light 16h 09m
Length of Day
15h 02m
Waning Crescent, 3% of the Moon is Illuminated
Jun 6
Waning Crescent
Jun 8
New
Jun 16
First Quarter
Jun 23
Full
Jun 29
Last Quarter

Hourly Weather History & Observations

Time (CDT) Temp. Windchill Dew Point Humidity Pressure Visibility Wind Dir Wind Speed Gust Speed Precip Events Conditions
12:15 AM 49.1 °F - 45.1 °F 86% 30.15 in 10.0 mi SE 5.8 mph - N/A   Clear
12:35 AM 48.6 °F - 45.1 °F 88% 30.15 in 10.0 mi SE 5.8 mph - N/A   Clear
12:55 AM 48.4 °F - 44.8 °F 87% 30.15 in 10.0 mi SE 6.9 mph - N/A   Clear
1:15 AM 48.4 °F - 44.6 °F 87% 30.15 in 10.0 mi SSE 6.9 mph - N/A   Clear
1:35 AM 48.2 °F - 44.2 °F 86% 30.14 in 10.0 mi SSE 6.9 mph - N/A   Clear
1:55 AM 48.2 °F - 44.6 °F 87% 30.13 in 10.0 mi SE 6.9 mph - N/A   Scattered Clouds
2:15 AM 49.5 °F - 44.6 °F 83% 30.13 in 10.0 mi SSE 6.9 mph - N/A   Mostly Cloudy
2:35 AM 48.6 °F - 43.7 °F 83% 30.12 in 10.0 mi SSE 6.9 mph - N/A   Scattered Clouds
2:55 AM 47.1 °F - 43.2 °F 86% 30.12 in 10.0 mi SSE 5.8 mph - N/A   Clear
3:15 AM 48.0 °F - 43.2 °F 83% 30.12 in 10.0 mi SSE 6.9 mph - N/A   Clear
3:35 AM 46.6 °F - 42.8 °F 87% 30.11 in 10.0 mi South 5.8 mph - N/A   Clear
3:55 AM 46.8 °F - 42.8 °F 86% 30.10 in 10.0 mi South 6.9 mph - N/A   Clear
4:15 AM 46.8 °F - 42.8 °F 86% 30.10 in 10.0 mi South 6.9 mph - N/A   Clear
4:35 AM 46.4 °F 42.9 °F 42.8 °F 87% 30.09 in 10.0 mi South 6.9 mph - N/A   Clear
4:55 AM 45.3 °F 42.3 °F 42.3 °F 89% 30.08 in 10.0 mi SE 5.8 mph - N/A   Clear
5:15 AM 45.5 °F 41.8 °F 42.4 °F 89% 30.09 in 10.0 mi South 6.9 mph - N/A   Clear
5:35 AM 44.6 °F 42.2 °F 41.9 °F 90% 30.09 in 10.0 mi South 4.6 mph - N/A   Clear
5:55 AM 44.6 °F 41.4 °F 41.9 °F 90% 30.09 in 10.0 mi South 5.8 mph - N/A   Clear
6:15 AM 44.6 °F 42.2 °F 41.9 °F 90% 30.08 in 10.0 mi SSW 4.6 mph - N/A   Clear
6:35 AM 44.6 °F 40.2 °F 42.3 °F 91% 30.08 in 10.0 mi SSW 8.1 mph - N/A   Clear
6:55 AM 45.1 °F 43.7 °F 42.8 °F 91% 30.08 in 10.0 mi SSW 3.5 mph - N/A   Clear
7:15 AM 46.6 °F - 43.7 °F 90% 30.08 in 10.0 mi SSW 3.5 mph - N/A   Clear
7:35 AM 46.8 °F - 43.5 °F 88% 30.09 in 10.0 mi Calm Calm - N/A   Clear
7:55 AM 48.2 °F - 45.0 °F 89% 30.09 in 10.0 mi Calm Calm - N/A   Clear
8:15 AM 50.0 °F - 45.5 °F 85% 30.10 in 10.0 mi South 5.8 mph - N/A   Clear
8:35 AM 51.6 °F - 45.9 °F 81% 30.11 in 10.0 mi South 4.6 mph - N/A   Clear
8:55 AM 53.1 °F - 47.1 °F 80% 30.11 in 10.0 mi SSE 4.6 mph - N/A   Clear
9:15 AM 54.3 °F - 47.5 °F 78% 30.11 in 10.0 mi South 3.5 mph - N/A   Clear
9:35 AM 56.3 °F - 48.6 °F 75% 30.10 in 10.0 mi SSW 3.5 mph - N/A   Clear
9:55 AM 57.9 °F - 49.5 °F 73% 30.10 in 10.0 mi SW 3.5 mph - N/A   Clear
10:15 AM 60.6 °F - 50.7 °F 70% 30.10 in 10.0 mi SW 4.6 mph - N/A   Clear
10:35 AM 63.5 °F - 50.4 °F 62% 30.10 in 10.0 mi West 4.6 mph - N/A   Clear
10:55 AM 65.3 °F - 48.6 °F 55% 30.10 in 10.0 mi WNW 4.6 mph - N/A   Clear
11:15 AM 66.0 °F - 48.6 °F 53% 30.10 in 10.0 mi West 5.8 mph - N/A   Clear
11:35 AM 66.9 °F - 46.8 °F 48% 30.10 in 10.0 mi NW 5.8 mph - N/A   Clear
11:55 AM 68.7 °F - 40.6 °F 36% 30.10 in 10.0 mi NW 10.4 mph - N/A   Clear
12:15 PM 69.4 °F - 38.8 °F 33% 30.10 in 10.0 mi NNW 11.5 mph - N/A   Clear
12:35 PM 70.2 °F - 37.6 °F 30% 30.10 in 10.0 mi North 11.5 mph 18.4 mph N/A   Clear
12:55 PM 70.9 °F - 35.8 °F 28% 30.10 in 10.0 mi NW 10.4 mph 16.1 mph N/A   Clear
1:15 PM 71.4 °F - 36.3 °F 28% 30.10 in 10.0 mi NNE 8.1 mph - N/A   Clear
1:35 PM 71.6 °F - 34.0 °F 25% 30.10 in 10.0 mi North 11.5 mph 20.7 mph N/A   Clear
1:55 PM 72.0 °F - 35.6 °F 26% 30.10 in 10.0 mi North 15.0 mph 20.7 mph N/A   Clear
2:15 PM 72.1 °F - 34.3 °F 25% 30.10 in 10.0 mi NNW 11.5 mph 19.6 mph N/A   Clear
2:35 PM 73.2 °F - 34.9 °F 25% 30.09 in 10.0 mi NNW 10.4 mph 19.6 mph N/A   Clear
2:55 PM 73.4 °F - 33.1 °F 23% 30.08 in 10.0 mi NNW 12.7 mph 20.7 mph N/A   Clear
3:15 PM 74.3 °F - 34.2 °F 23% 30.08 in 10.0 mi NNW 16.1 mph 26.5 mph N/A   Clear
3:35 PM 74.7 °F - 33.6 °F 22% 30.08 in 10.0 mi NNW 13.8 mph 24.2 mph N/A   Clear
3:55 PM 74.8 °F - 34.5 °F 23% 30.08 in 10.0 mi North 16.1 mph 23.0 mph N/A   Clear
4:15 PM 75.0 °F - 35.1 °F 23% 30.07 in 10.0 mi North 17.3 mph - N/A   Clear
4:35 PM 75.0 °F - 36.0 °F 24% 30.07 in 10.0 mi NNW 16.1 mph 21.9 mph N/A   Clear
4:55 PM 75.2 °F - 37.0 °F 25% 30.07 in 10.0 mi North 8.1 mph 21.9 mph N/A   Clear
5:15 PM 75.0 °F - 37.0 °F 25% 30.06 in 10.0 mi North 12.7 mph 16.1 mph N/A   Clear
5:35 PM 75.6 °F - 37.2 °F 25% 30.06 in 10.0 mi North 12.7 mph 19.6 mph N/A   Clear
5:55 PM 75.6 °F - 37.8 °F 25% 30.05 in 10.0 mi North 15.0 mph - N/A   Clear
6:15 PM 75.6 °F - 37.6 °F 25% 30.05 in 10.0 mi North 16.1 mph - N/A   Clear
6:35 PM 75.2 °F - 37.0 °F 25% 30.05 in 10.0 mi North 16.1 mph - N/A   Clear
6:55 PM 75.4 °F - 35.1 °F 23% 30.04 in 10.0 mi North 16.1 mph 20.7 mph N/A   Clear
7:15 PM 74.5 °F - 35.2 °F 24% 30.05 in 10.0 mi North 15.0 mph 27.6 mph N/A   Clear
7:35 PM 73.8 °F - 35.8 °F 25% 30.05 in 10.0 mi NNE 16.1 mph - N/A   Clear
7:55 PM 72.0 °F - 35.6 °F 26% 30.06 in 10.0 mi North 13.8 mph - N/A   Clear
8:15 PM 71.6 °F - 36.7 °F 28% 30.07 in 10.0 mi NNE 12.7 mph - N/A   Clear
8:35 PM 69.6 °F - 37.2 °F 31% 30.07 in 10.0 mi NNE 10.4 mph 16.1 mph N/A   Clear
8:55 PM 67.6 °F - 39.0 °F 35% 30.08 in 10.0 mi NE 8.1 mph - N/A   Clear
9:15 PM 64.6 °F - 41.0 °F 42% 30.09 in 10.0 mi NE 6.9 mph - N/A   Clear
9:35 PM 62.6 °F - 39.6 °F 43% 30.10 in 10.0 mi ENE 8.1 mph - N/A   Clear
9:55 PM 58.8 °F - 41.9 °F 53% 30.10 in 10.0 mi ENE 4.6 mph - N/A   Clear
10:15 PM 57.4 °F - 42.4 °F 57% 30.11 in 10.0 mi East 8.1 mph - N/A   Clear
10:35 PM 56.5 °F - 43.3 °F 61% 30.12 in 10.0 mi ESE 6.9 mph - N/A   Clear
10:55 PM 55.2 °F - 45.3 °F 69% 30.13 in 10.0 mi ESE 5.8 mph - N/A   Clear
11:15 PM 55.6 °F - 46.8 °F 72% 30.13 in 10.0 mi ESE 8.1 mph - N/A   Clear
11:35 PM 54.5 °F - 46.8 °F 75% 30.13 in 10.0 mi SE 5.8 mph - N/A   Clear
11:55 PM 54.5 °F - 47.1 °F 76% 30.13 in 10.0 mi SE 6.9 mph - N/A   Clear